Port Edwards, WI

3:44 AM CST on February 14, 2016 (GMT -0600)
Alexander Field South Wood County

Weather History for KISW - June, 2013

Change the Weather History Date:

Friday, June 7, 2013

  Actual Average Record
Temperature  
Mean Temperature 59 °F -  
Max Temperature 69 °F 77 °F 93 °F (1988)
Min Temperature 52 °F 52 °F 36 °F (1953)
Degree Days  
Heating Degree Days 6    
Growing Degree Days 9 (Base 50)    
Moisture  
Dew Point 49 °F    
Average Humidity 74    
Maximum Humidity 96    
Minimum Humidity 49    
Precipitation  
Precipitation 0.00 in - - ()
Sea Level Pressure  
Sea Level Pressure 30.00 in    
Wind  
Wind Speed 4 mph (ENE)    
Max Wind Speed 7 mph    
Max Gust Speed -    
Visibility 10 miles    
Events      
Averages and records for this station are not official NWS values.
T = Trace of Precipitation, MM = Missing Value Source: NWS Daily Summary

Daily Weather History Graph

Daily Weather History Graph

Search for Another Location

Airport or City:

Trip Planner

Search our weather history database for the weather conditions in past years. The results will help you decide how hot, cold, wet, or windy it might be!

Date:

Astronomy

Jun. 07, 2013 Rise Set
Actual Time 5:15 AM CDT 8:41 PM CDT
Civil Twilight 4:39 AM CDT 9:17 PM CDT
Nautical Twilight 3:52 AM CDT 10:05 PM CDT
Astronomical Twilight 2:51 AM CDT 11:05 PM CDT
Moon 4:41 AM CDT (6/7) 7:52 PM CDT (6/7)
Length of Visible Light 16h 38m
Length of Day
15h 25m
Waning Crescent, 1% of the Moon is Illuminated
Jun 7
Waning Crescent
Jun 8
New
Jun 16
First Quarter
Jun 23
Full
Jun 29
Last Quarter

Hourly Weather History & Observations

Time (CDT) Temp. Dew Point Humidity Pressure Visibility Wind Dir Wind Speed Gust Speed Precip Events Conditions
12:54 AM 53.1 °F 48.9 °F 86% 30.02 in 10.0 mi North 3.5 mph - N/A   Overcast
1:54 AM 52.0 °F 48.9 °F 89% 30.01 in 10.0 mi North 3.5 mph - N/A   Overcast
2:54 AM 52.0 °F 48.9 °F 89% 30.01 in 10.0 mi NNE 4.6 mph - N/A   Overcast
3:54 AM 52.0 °F 48.0 °F 86% 30.01 in 10.0 mi Calm Calm - N/A   Overcast
4:54 AM 52.0 °F 46.0 °F 80% 30.01 in 10.0 mi NNE 6.9 mph - N/A   Overcast
5:54 AM 52.0 °F 46.0 °F 80% 30.02 in 10.0 mi NNE 5.8 mph - N/A   Overcast
6:54 AM 52.0 °F 46.0 °F 80% 30.02 in 10.0 mi NE 3.5 mph - N/A   Overcast
7:54 AM 53.1 °F 45.0 °F 74% 30.04 in 10.0 mi NE 5.8 mph - N/A   Overcast
8:54 AM 54.0 °F 46.0 °F 75% 30.05 in 10.0 mi ENE 5.8 mph - N/A   Overcast
9:54 AM 55.0 °F 46.0 °F 72% 30.04 in 10.0 mi ENE 5.8 mph - N/A   Overcast
10:54 AM 59.0 °F 48.0 °F 67% 30.04 in 10.0 mi East 3.5 mph - N/A   Overcast
11:54 AM 60.1 °F 50.0 °F 69% 30.03 in 10.0 mi Variable 3.5 mph - N/A   Overcast
12:54 PM 60.1 °F 48.9 °F 67% 30.02 in 10.0 mi East 4.6 mph - N/A   Scattered Clouds
1:54 PM 63.0 °F 48.0 °F 58% 30.00 in 10.0 mi ESE 6.9 mph - N/A   Mostly Cloudy
2:54 PM 66.0 °F 50.0 °F 56% 29.99 in 10.0 mi SE 5.8 mph - N/A   Overcast
3:54 PM 66.9 °F 48.0 °F 51% 29.98 in 10.0 mi Calm Calm - N/A   Overcast
4:54 PM 66.9 °F 46.9 °F 49% 29.97 in 10.0 mi Variable 3.5 mph - N/A   Overcast
5:54 PM 66.9 °F 51.1 °F 57% 29.96 in 10.0 mi East 5.8 mph - N/A   Overcast
6:54 PM 64.9 °F 51.1 °F 61% 29.95 in 10.0 mi ESE 4.6 mph - N/A   Overcast
7:54 PM 63.0 °F 53.1 °F 70% 29.96 in 10.0 mi East 4.6 mph - N/A   Overcast
8:54 PM 59.0 °F 55.0 °F 87% 29.96 in 10.0 mi Calm Calm - N/A   Overcast
9:54 PM 57.0 °F 55.0 °F 93% 29.97 in 10.0 mi Calm Calm - N/A   Overcast
10:54 PM 57.9 °F 55.0 °F 90% 29.96 in 10.0 mi Calm Calm - N/A   Overcast
11:54 PM 55.0 °F 54.0 °F 96% 29.96 in 9.0 mi Calm Calm - N/A   Overcast